This is the latest recevied weather packets stored in our database for station/object YO6IKB-10. If no packets are shown the sender has not sent any weather packets the latest 10 day(s).
| Time | Temp. | Humidity | Pressure | Rain* | Wind** | Luminosity | Snow |
|---|---|---|---|---|---|---|---|
| 1777460060 | 13.89° C | 48% | 1014.2 hPa | 0 mm | - | - | - |
| 1777459760 | 13.89° C | 48% | 1014.2 hPa | 0 mm | - | - | - |
| 1777459460 | 13.89° C | 48% | 1014.4 hPa | 0 mm | - | - | - |
| 1777459159 | 13.89° C | 49% | 1014.4 hPa | 0 mm | - | - | - |
| 1777458859 | 13.33° C | 49% | 1014.4 hPa | 0 mm | - | - | - |
| 1777458559 | 13.89° C | 48% | 1014.4 hPa | 0 mm | - | - | - |
| 1777458258 | 13.89° C | 48% | 1014.6 hPa | 0 mm | - | - | - |
| 1777457958 | 13.89° C | 48% | 1014.6 hPa | 0 mm | - | - | - |
| 1777457658 | 14.44° C | 47% | 1014.5 hPa | 0 mm | - | - | - |
| 1777457358 | 14.44° C | 48% | 1014.6 hPa | 0 mm | - | - | - |
| 1777457057 | 14.44° C | 48% | 1014.6 hPa | 0 mm | - | - | - |
| 1777456757 | 13.89° C | 48% | 1014.7 hPa | 0 mm | - | - | - |
| 1777456457 | 13.89° C | 48% | 1014.7 hPa | 0 mm | - | - | - |
| 1777456156 | 13.89° C | 49% | 1014.6 hPa | 0 mm | - | - | - |
| 1777455856 | 13.89° C | 48% | 1014.6 hPa | 0 mm | - | - | - |
| 1777455556 | 13.89° C | 50% | 1014.6 hPa | 0 mm | - | - | - |
| 1777455255 | 13.33° C | 50% | 1014.7 hPa | 0 mm | - | - | - |
| 1777454955 | 13.33° C | 51% | 1014.7 hPa | 0 mm | - | - | - |
| 1777454655 | 12.78° C | 50% | 1014.8 hPa | 0 mm | - | - | - |
| 1777454355 | 12.78° C | 51% | 1014.9 hPa | 0 mm | - | - | - |
| 1777454054 | 12.22° C | 51% | 1014.8 hPa | 0 mm | - | - | - |
| 1777453754 | 12.22° C | 50% | 1014.9 hPa | 0 mm | - | - | - |
| 1777453454 | 12.22° C | 51% | 1015 hPa | 0 mm | - | - | - |
| 1777453154 | 11.67° C | 52% | 1015 hPa | 0 mm | - | - | - |
| 1777452853 | 11.67° C | 52% | 1015 hPa | 0 mm | - | - | - |
* Rain latest hour (hover to see other rain measurements)
** Current wind speed in m/s (hover to see current wind gust speed)